Regional Weather Roundup
Issued by NWS

Home | Current Version | Previous Version | Graphics & Text | Print | Product List | Glossary On
Versions: 1 2 3 4 5 6 7 8 9 10 11 12 13 14 15 16 17 18 19 20 21 22 23 24 25 26 27 28 29 30 31 32 33 34 35 36 37 38 39 40 41 42 43 44 45 46 47 48 49 50
000
ASUS45 KPSR 251310
RWRAZ

ARIZONA HOURLY REGIONAL WEATHER ROUNDUP
NATIONAL WEATHER SERVICE PHOENIX AZ
600 AM MST TUE APR 25 2017

NOTE: FAIR INDICATES FEW OR NO CLOUDS BELOW 12,000 FEET WITH NO
SIGNIFICANT WEATHER AND/OR OBSTRUCTIONS TO VISIBILITY.

AZZ001>003-036-251400-
NORTHWEST ARIZONA

CITY           SKY/WX    TMP DP  RH WIND       PRES   REMARKS
BULLHEAD CITY  CLEAR     63  34  34 CALM      29.63R
KINGMAN        PTCLDY    54  30  40 CALM      29.71R
$$

AZZ004>008-015-016-018-251400-
NORTH CENTRAL ARIZONA

CITY           SKY/WX    TMP DP  RH WIND       PRES   REMARKS
GRAND CANYON   PTCLDY    43  24  47 CALM      29.76S
WILLIAMS       CLOUDY    46  30  53 W3        29.78R
PRESCOTT       MOCLDY    51  30  44 VRB3      29.73R
FLAGSTAFF      MOCLDY    45  29  53 SW10      29.77R
PAYSON         CLOUDY    54  37  54 SW7       29.78R
PAGE           CLOUDY    58  29  33 NW10      29.65S
$$

AZZ009>014-017-251400-
NORTHEAST ARIZONA

CITY           SKY/WX    TMP DP  RH WIND       PRES   REMARKS
WINSLOW        NOT AVBL
SAINT JOHNS    CLOUDY    53  32  44 NW6       29.72S
WINDOW ROCK    LGT RAIN  43  38  82 SW8       29.75S
SHOW LOW       CLOUDY    48  21  34 S18G31    29.74F
$$

AZZ540-542>544-546-548-251400-
GREATER PHOENIX AREA

CITY           SKY/WX    TMP DP  RH WIND       PRES   REMARKS
PHOENIX        PTCLDY    70  44  39 W13       29.62R
BUCKEYE        CLEAR     61  45  55 S5        29.65R
GLENDALE       MOCLDY    68  45  42 S14       29.64
LUKE AFB       CLEAR     67  46  46 S16       29.62R
DEER VALLEY    CLEAR     65  45  48 S10       29.63R
SCOTTSDALE     CLEAR     68  43  40 W7        29.65R
MESA-FALCON    PTCLDY   N/A N/A N/A SW7       29.65
MESA-GATEWAY   PTCLDY    66  39  37 SW7       29.65R
CHANDLER       CLEAR     70  45  40 SW16      29.64
$$

AZZ539-553-251400-
SOUTHWEST MARICOPA COUNTY AND PINAL COUNTY

CITY           SKY/WX    TMP DP  RH WIND       PRES   REMARKS
CASA GRANDE    CLEAR     66  42  41 SW12      29.66R
GILA BEND      FAIR      67  45  44 SW13      29.64R
$$

AZZ503-504-507>509-251400-
SOUTHEAST ARIZONA

CITY           SKY/WX    TMP DP  RH WIND       PRES   REMARKS
TUCSON         MOCLDY    68  26  20 CALM      29.75R
DAVIS-MONTHAN  PTCLDY    67  28  23 SW10      29.74R
RYAN FIELD     CLEAR     68  28  22 SW14G20   29.75
NOGALES        PTCLDY    62  24  23 S10       29.81R
SIERRA VISTA   PTCLDY    62  16  16 SW6G20    29.80R
DOUGLAS        CLEAR     60  16  18 SE3       29.80R
SAFFORD        PTCLDY    64  21  19 W9        29.68R
$$

AZZ532-251400-
SOUTHWEST ARIZONA

CITY           SKY/WX    TMP DP  RH WIND       PRES   REMARKS
YUMA           CLEAR     66  46  48 NW17      29.68R
$$

CAZ041-043-047-048-061-525>527-560>570-251400-
SOUTHERN CALIFORNIA

CITY           SKY/WX    TMP DP  RH WIND       PRES   REMARKS
DOWNTOWN L.A.  PTCLDY    64  43  46 NW5       29.82F
L.A. AIRPORT   MOCLDY    63  44  50 N10       29.84S
SAN DIEGO      MOCLDY    62  53  72 S10       29.89R
BURBANK        CLEAR     60  41  49 N15G23    29.85R
ONTARIO        MOCLDY    55  52  89 CALM      29.85R
RIVERSIDE      MOCLDY    54  51  90 SE3       29.85F
PALM SPRINGS   PTCLDY    67  44  43 NW10      29.68R
EL CENTRO NAS  MOCLDY    67  43  41 W18       29.69S
IMPERIAL       CLEAR     68  46  45 W20G26    29.67S
BLYTHE         PTCLDY    69  37  30 SW3       29.65R
NEEDLES        PTCLDY    69  36  29 W9        29.64R
$$

NVZ020-UTZ003-251400-
SOUTHERN NEVADA-UTAH

CITY           SKY/WX    TMP DP  RH WIND       PRES   REMARKS
LAS VEGAS      MOCLDY    67  14  13 N14G21    29.71R
SALT LAKE CITY CLOUDY    42  38  85 W15       29.75R
$$

NMZ009-TXZ055-251400-
NEW MEXICO-WEST TEXAS

CITY           SKY/WX    TMP DP  RH WIND       PRES   REMARKS
ALBUQUERQUE    CLOUDY    57  32  38 NW17G23   29.71R
EL PASO        CLOUDY    68  29  23 SW20G29   29.70S
$$


........................KEY........................
SKY/WX - SKY CONDITION/WEATHER
TMP    - TEMPERATURE IN FAHRENHEIT
DP     - DEW POINT IN FAHRENHEIT
RH     - RELATIVE HUMIDITY IN PERCENT
WIND   - DIRECTION AND SPEED IN MILES PER HOUR (MPH)
VRB    - VARIABLE WIND DIRECTION
PRES   - MEAN SEA LEVEL PRESSURE IN INCHES OF MERCURY
         F - FALLING PRESSURE   R - RISING PRESSURE
         S - STEADY PRESSURE
VSB    - VISIBILITY IN MILES
HX     - HEAT INDEX IN FAHRENHEIT
WCI    - WIND CHILL INDEX IN FAHRENHEIT
TC     - TEMPERATURE IN CELSIUS WHICH IS ALSO KNOWN AS
         TEMPERATURE IN CENTIGRADE
AFB    - AIR FORCE BASE
         LUKE AFB IS LUKE AIR FORCE BASE
         DAVIS-MONTHAN IS DAVIS-MONTHAN AIR FORCE BASE
NAS    - NAVAL AIR STATION
         EL CENTRO NAS IS EL CENTRO NAVAL AIR STATION
N/A    - NOT AVAILABLE




USA.gov is the U.S. government's official web portal to all federal, state and local government web resources and services.